Regional Weather Roundup
Issued by NWS

Home | Current Version | Previous Version | Text Only | Print | Product List | Glossary Off
Versions: 1 2 3 4 5 6 7 8 9 10 11 12 13 14 15 16 17 18 19 20 21 22 23 24 25 26 27 28 29 30 31 32 33 34 35 36 37 38 39 40 41 42 43 44 45 46 47 48 49 50

000
ASUS43 KIND 222309
RWRIN

WEATHER ROUNDUP FOR INDIANA
NATIONAL WEATHER SERVICE INDIANAPOLIS IN
700 PM EDT SUN APR 22 2018

NOTE: "FAIR" INDICATES FEW OR NO CLOUDS BELOW 12,000 FEET WITH NO
SIGNIFICANT WEATHER AND/OR OBSTRUCTIONS TO VISIBILITY.

* - STATION DOES NOT REPORT WEATHER SUCH AS PRECIPITATION OR FOG.

+ - STATION NOT QUALITY CONTROLLED BY THE NATIONAL WEATHER SERVICE.
    USE DATA WITH CAUTION...ESPECIALLY DEWPOINT AND RELATIVE
    HUMIDITY OBSERVATIONS.

INZ001>003-010>013-019-020-230000-
NORTHWEST INDIANA

CITY           SKY/WX    TMP DP  RH WIND       PRES   REMARKS
GARY /AIRPORT/ PTSUNNY   50  30  46 NE8       30.25S
KNOX *+        FAIR      63  28  27 E13G18    30.22F
LA PORTE +     FAIR      62  27  25 E14       30.24F
MICHIGAN CITY+ FAIR      63  28  27 CALM      30.24F
MONTICELLO +   FAIR      63  25  23 E8G17     30.19F
RENSSELAER +   FAIR      63   9  12 E15G21    30.21S
VALPARAISO     FAIR      64  27  24 E15       30.23S

$$

LMZ046-743>745-230000-
SOUTHERN LAKE MICHIGAN

STATION/POSITION TIME  TEMP    WIND        PRES    WAVE
                       AIR SEA DIR/SP/G            HT
                 (UTC) (F)     (DEG/KT/KT) (MB)    (FT)
BURNS HARBOR     2240   46      60/ 11/ 13 1024.7F
MICHIGAN CITY    2240   43      30/ 11/ 12   N/A

$$

INZ004-005-014>016-021>024-230000-
NORTH CENTRAL INDIANA

CITY           SKY/WX    TMP DP  RH WIND       PRES   REMARKS
GOSHEN         FAIR      60  26  27 E16       30.26S
LOGANSPORT +   FAIR      61  30  31 E15G22    30.21F
PERU/GRISSOM   PTSUNNY   63  21  20 E17       30.21F
ROCHESTER +    FAIR      64  25  22 E17       30.24S
SOUTH BEND     FAIR      61  21  21 E14       30.26S
WARSAW +       FAIR      61  28  29 E16G22    30.25S

$$

INZ006>009-017-018-025>027-230000-
NORTHEAST INDIANA

CITY           SKY/WX    TMP DP  RH WIND       PRES   REMARKS
AUBURN +       FAIR      59  23  25 E14       30.28S
FORT WAYNE     PTSUNNY   60  26  27 E20       30.26F
HUNTINGTON +   FAIR      60  22  22 E12G20    30.24S

$$

INZ028-029-035-036-043>045-051>053-230000-
WEST CENTRAL INDIANA

CITY           SKY/WX    TMP DP  RH WIND       PRES   REMARKS
CRAWFORDSVL +  FAIR      63  32  31 NE13      30.16S
GREENCASTLE +  FAIR      63  30  29 E9        30.15S
LAFAYETTE      FAIR      62  31  31 E12       30.17F
TERRE HAUTE    FAIR      64  33  31 E15G23    30.12F

$$

INZ030>032-037>040-046>048-054>057-064-065-230000-
CENTRAL INDIANA

CITY           SKY/WX    TMP DP  RH WIND       PRES   REMARKS
COLUMBUS       SUNNY     66 N/A N/A E10       30.17S
FISHERS *+     FAIR      63  37  39 E9G20     30.17S
FRANKFORT +    FAIR      65  29  25 E15G23    30.20S
GREENWOOD *+   FAIR      63  27  25 E8        30.17S
INDIANAPOLIS   CLOUDY    65  22  19 E12       30.16F
-EAGLE CREEK   FAIR      65  31  28 NE8       30.16S
KOKOMO +       FAIR      62  29  28 E17       30.20F
MARION +       FAIR      61  28  28 E14       30.21F
MT COMFORT *+  FAIR      63  41  45 E14       30.18S
SHELBYVILLE    FAIR      67  24  19 E14       30.16S
ZIONSVILLE +   FAIR      61  33  34 E9G17     30.18S

$$

INZ033-034-041-042-049-050-058-059-230000-
EAST CENTRAL INDIANA

CITY           SKY/WX    TMP DP  RH WIND       PRES   REMARKS
MUNCIE         FAIR      65  30  27 E14       30.20F
RICHMOND +     FAIR      63  32  31 E13       30.20S

$$

INZ060-061-067>069-081>083-085>088-230000-
SOUTHWEST INDIANA

CITY           SKY/WX    TMP DP  RH WIND       PRES   REMARKS
EVANSVILLE     LGT RAIN  62  53  72 E7        30.07S
HUNTINGBURG +  LGT RAIN  64  51  62 SE8       30.08S
WASHINGTON +   DRIZZLE   64  44  48 E9        30.09S

$$

INZ062-063-066-070>080-084-089>092-230000-
SOUTH CENTRAL AND SOUTHEAST INDIANA

CITY           SKY/WX    TMP DP  RH WIND       PRES   REMARKS
BATESVILLE +   SUNNY     61  30  31 MISG      30.17S
BLOOMINGTON    FAIR      65  31  28 E14       30.13S
FRENCH LICK *+ CLOUDY    63  37  39 NE13      30.10S
MADISON *+     FAIR      66  25  20 E13G20    30.15F
NORTH VERNON + FAIR      63  30  29 E10G16    30.16S
SEYMOUR +      FAIR      68  37  32 E14       30.13S

$$





USA.gov is the U.S. government's official web portal to all federal, state and local government web resources and services.